This is the latest recevied weather packets stored in our database for station/object OE2ATN. If no packets are shown the sender has not sent any weather packets the latest 1 day(s).
| Time | Temp. | Humidity | Pressure | Rain* | Wind** | Luminosity | Snow |
|---|---|---|---|---|---|---|---|
| 1778082332 | 20° C | 41% | 1011 hPa | 0 mm | - | - | - |
| 1778082032 | 19.44° C | 44% | 1011 hPa | 0 mm | - | - | - |
| 1778081132 | 19.44° C | 42% | 1010.8 hPa | 0 mm | - | - | - |
| 1778080832 | 19.44° C | 42% | 1010.8 hPa | 0 mm | - | - | - |
| 1778080531 | 19.44° C | 41% | 1010.7 hPa | 0 mm | - | - | - |
| 1778079631 | 20° C | 43% | 1010.8 hPa | 0 mm | - | - | - |
| 1778078430 | 21.11° C | 38% | 1010.9 hPa | 0 mm | - | - | - |
| 1778077231 | 21.11° C | 39% | 1011.1 hPa | 0 mm | - | - | - |
| 1778076630 | 21.11° C | 38% | 1011.3 hPa | 0 mm | - | - | - |
| 1778075130 | 21.67° C | 40% | 1011.5 hPa | 0 mm | - | - | - |
| 1778074830 | 21.67° C | 41% | 1011.5 hPa | 0 mm | - | - | - |
| 1778074529 | 21.11° C | 40% | 1011.3 hPa | 0 mm | - | - | - |
| 1778071529 | 20.56° C | 39% | 1011.8 hPa | 0 mm | - | - | - |
| 1778070928 | 20° C | 41% | 1012 hPa | 0 mm | - | - | - |
| 1778070628 | 20° C | 43% | 1012 hPa | 0 mm | - | - | - |
| 1778070328 | 20° C | 41% | 1012 hPa | 0 mm | - | - | - |
| 1778070028 | 20° C | 43% | 1012.1 hPa | 0 mm | - | - | - |
| 1778069128 | 20.56° C | 39% | 1012.1 hPa | 0 mm | - | - | - |
| 1778068526 | 20° C | 43% | 1012.1 hPa | 0 mm | - | - | - |
| 1778068227 | 20° C | 43% | 1012.2 hPa | 0 mm | - | - | - |
| 1778067926 | 20° C | 40% | 1012.2 hPa | 0 mm | - | - | - |
| 1778066727 | 20° C | 39% | 1012.4 hPa | 0 mm | - | - | - |
| 1778066425 | 20.56° C | 44% | 1012.5 hPa | 0 mm | - | - | - |
| 1778065526 | 19.44° C | 41% | 1012.6 hPa | 0 mm | - | - | - |
| 1778065226 | 19.44° C | 46% | 1012.8 hPa | 0 mm | - | - | - |
* Rain latest hour (hover to see other rain measurements)
** Current wind speed in m/s (hover to see current wind gust speed)